Location: La Estación
(39.9833°N, 3.9500°W)
Time: 15:26:35
(UTC+00:00)

MOS 1 - Pass Details

Date: 14 June 2025
Orbit: 876 x 889 km, 98.9° (Epoch: 19 July)

Event Time Altitude Azimuth Distance (km) Brightness Sun altitude
Exits shadow 20:49:43 - 168° (SSE) 2,798 6.4 -10.5°
Reaches altitude 10° 20:50:23 10° 168° (SSE) 2,540 6.2 -10.6°
Maximum altitude 20:56:03 82° 256° (WSW) 898 4.4 -11.4°
Drops below altitude 10° 21:01:44 10° 344° (NNW) 2,548 7.7 -12.2°
Sets 21:04:08 0° 346° (NNW) 3,489 8.5 -12.5°
